This demonstration page uses our WeatherBlox Daily Observations layout. Learn more.

Left ArrowRight Arrow

Hourly Observations for September 30, 2017

Temp ( °F °C ) Dew Point ( °F °C ) Humidity (%) Winds ( mph kmh ) Pressure ( in mb ) Visibility ( mi km ) Precip ( " mm )
12:54 am 00:54 Partly Cloudy 66 18.9 52 11.1 61 61 SE 13 20 30.22 1023 10 16.0934 0 0
1:54 am 01:54 Mostly Cloudy 66 18.9 51 10.6 59 59 SE 14 22 30.22 1024 10 16.0934 0 0
2:54 am 02:54 Mostly Cloudy 66 18.9 51 10.6 59 59 SE 12 19 30.23 1024 10 16.0934 0 0
3:54 am 03:54 Cloudy 63 17.2 53 11.7 70 70 SE 13 20 30.22 1023 10 16.0934 0.01 0.254
4:54 am 04:54 Mostly Cloudy 63 17.2 51 10.6 65 65 SE 12 19 30.22 1023 10 16.0934 0 0
5:54 am 05:54 Cloudy 63 17.2 51 10.6 65 65 SE 9 15 30.22 1023 10 16.0934 0 0
6:54 am 06:54 Cloudy 62 16.7 50 10 65 65 SE 13 20 30.22 1024 10 16.0934 0 0.0254
7:54 am 07:54 Cloudy 62 16.7 50 10 65 65 SE 10 17 30.22 1024 10 16.0934 0 0
8:54 am 08:54 Cloudy 63 17.2 49 9.4 60 60 SSE 13 20 30.22 1023 10 16.0934 0 0
9:54 am 09:54 Cloudy 65 18.3 50 10 59 59 SSE 14 22 30.22 1023 10 16.0934 0 0
10:54 am 10:54 Sunny 69 20.6 52 11.1 55 55 SSE 12 19 30.22 1023 10 16.0934 0 0
11:54 am 11:54 Mostly Sunny 73 22.8 52 11.1 48 48 SSE 14 22 30.19 1022 10 16.0934 0 0
12:54 pm 12:54 Cloudy 74 23.3 51 10.6 45 45 S 20 31 30.16 1021 10 16.0934 0 0
1:54 pm 13:54 Cloudy 75 23.9 51 10.6 43 43 S 16 26 30.13 1020 10 16.0934 0 0
2:54 pm 14:54 Cloudy 76 24.4 51 10.6 42 42 SSE 16 26 30.09 1019 10 16.0934 0 0
3:54 pm 15:54 Cloudy with Light Rain 76 24.4 52 11.1 43 43 S 18 30 30.07 1018 10 16.0934 0 0.0254
4:54 pm 16:54 Mostly Cloudy 79 26.1 50 10 36 36 SSE 20 31 30.03 1017 10 16.0934 0 0.0254
5:54 pm 17:54 Cloudy 76 24.4 47 8.3 36 36 SSE 14 22 30.03 1017 10 16.0934 0 0
6:54 pm 18:54 Mostly Cloudy 74 23.3 50 10 43 43 SE 15 24 30.02 1017 10 16.0934 0 0
7:54 pm 19:54 Mostly Cloudy 73 22.8 49 9.4 43 43 SE 12 19 30.02 1017 10 16.0934 0 0
8:54 pm 20:54 Mostly Clear 71 21.7 49 9.4 46 46 SSE 14 22 30.01 1016 10 16.0934 0 0
9:54 pm 21:54 Mostly Clear 69 20.6 49 9.4 49 49 SSE 14 22 30.02 1017 10 16.0934 0 0
10:54 pm 22:54 Partly Cloudy 68 20 49 9.4 51 51 SSE 16 26 30.03 1017 10 16.0934 0 0
11:54 pm 23:54 Cloudy 67 19.4 49 9.4 53 53 S 13 20 30.02 1017 10 16.0934 0 0

Powered by AerisWeather